Fort Yukon, AK

9:54 PM AKDT on June 19, 2018 (GMT -0800)
Fort Yukon

Weather History for PFYU - June, 2018

Change the Weather History Date:

Thursday, June 14, 2018

  Actual Average Record
Temperature  
Mean Temperature 55 °F -  
Max Temperature 64 °F 66 °F 80 °F (2013)
Min Temperature 46 °F 48 °F 39 °F (2017)
Degree Days  
Heating Degree Days 10    
Growing Degree Days 5 (Base 50)    
Moisture  
Dew Point 38 °F    
Average Humidity 54    
Maximum Humidity 89    
Minimum Humidity 32    
Precipitation  
Precipitation 0.01 in - - ()
Sea Level Pressure  
Sea Level Pressure 29.73 in    
Wind  
Wind Speed 4 mph (WSW)    
Max Wind Speed 17 mph    
Max Gust Speed 28 mph    
Visibility 10 miles    
Events Rain    
Averages and records for this station are not official NWS values.
T = Trace of Precipitation, MM = Missing Value Source: NWS Daily Summary

Daily Weather History Graph

Daily Weather History Graph

Search for Another Location

Airport or City:

Astronomy

Jun. 14, 2018 Rise Set
Actual Time 2:13 AM AKDT 1:09 AM AKDT
Civil Twilight Sun does not set Sun does not set
Nautical Twilight Sun does not set Sun does not set
Astronomical Twilight Sun does not set Sun does not set
Moon 4:28 AM AKDT (6/14) 12:04 AM AKDT (6/14)
Length of Visible Light 24h 00m
Length of Day
22h 55m
New Moon, 2% of the Moon is Illuminated
Jun 14
New Moon
Jun 20
First Quarter
Jun 27
Full
Jul 5
Last Quarter
Jul 12
New

Hourly Weather History & Observations

Time (AKDT) Temp. Dew Point Humidity Pressure Visibility Wind Dir Wind Speed Gust Speed Precip Events Conditions
12:56 AM 52.0 °F 39.0 °F 61% 29.76 in 10.0 mi Calm Calm - N/A   Partly Cloudy
1:56 AM 48.9 °F 37.9 °F 66% 29.76 in 10.0 mi Calm Calm - N/A   Partly Cloudy
2:56 AM 50.0 °F 37.9 °F 63% 29.75 in 10.0 mi Calm Calm - N/A   Clear
3:56 AM 51.1 °F 37.0 °F 59% 29.75 in 10.0 mi Variable 4.6 mph - N/A   Overcast
4:56 AM 50.0 °F 37.9 °F 63% 29.73 in 10.0 mi Calm Calm - N/A   Overcast
5:56 AM 50.0 °F 39.9 °F 68% 29.73 in 10.0 mi Calm Calm - N/A   Partly Cloudy
6:56 AM 50.0 °F 39.0 °F 66% 29.70 in 10.0 mi Calm Calm - N/A   Overcast
7:56 AM 48.0 °F 45.0 °F 89% 29.71 in 9.0 mi Calm Calm - 0.00 in Rain Light Rain
8:56 AM 51.1 °F 44.1 °F 77% 29.70 in 10.0 mi Variable 3.5 mph - 0.00 in   Overcast
9:56 AM 55.0 °F 43.0 °F 64% 29.69 in 10.0 mi Variable 3.5 mph - N/A   Scattered Clouds
10:56 AM 55.9 °F 45.0 °F 67% 29.68 in 10.0 mi Variable 3.5 mph - N/A   Clear
11:56 AM 59.0 °F 43.0 °F 55% 29.67 in 10.0 mi South 4.6 mph - N/A   Mostly Cloudy
12:56 PM 62.1 °F 37.0 °F 39% 29.65 in 10.0 mi Variable 6.9 mph 20.7 mph 0.00 in   Overcast
1:56 PM 57.9 °F 39.0 °F 49% 29.69 in 10.0 mi West 17.3 mph 27.6 mph 0.01 in   Mostly Cloudy
2:56 PM 59.0 °F 39.9 °F 49% 29.69 in 10.0 mi West 10.4 mph 16.1 mph N/A   Mostly Cloudy
3:56 PM 57.0 °F 39.0 °F 51% 29.72 in 10.0 mi West 11.5 mph 20.7 mph N/A   Mostly Cloudy
4:56 PM 57.9 °F 36.0 °F 44% 29.72 in 10.0 mi West 11.5 mph 18.4 mph N/A   Scattered Clouds
5:56 PM 57.9 °F 33.1 °F 39% 29.73 in 10.0 mi SW 10.4 mph 19.6 mph N/A   Mostly Cloudy
6:56 PM 55.9 °F 34.0 °F 44% 29.75 in 10.0 mi West 13.8 mph 17.3 mph N/A   Mostly Cloudy
7:56 PM 57.9 °F 35.1 °F 42% 29.75 in 10.0 mi West 10.4 mph 18.4 mph N/A   Mostly Cloudy
8:56 PM 54.0 °F 34.0 °F 47% 29.76 in 10.0 mi West 9.2 mph - N/A   Mostly Cloudy
9:56 PM 51.1 °F 30.0 °F 44% 29.79 in 10.0 mi WSW 6.9 mph - N/A   Clear
10:56 PM 51.1 °F 28.0 °F 41% 29.80 in 10.0 mi WSW 8.1 mph - N/A   Partly Cloudy
11:56 PM 48.9 °F 28.9 °F 46% 29.82 in 10.0 mi West 6.9 mph - N/A   Clear